Location: ?ejkovice
(49.0137°N, 14.3821°E)
Time: 05:32:22
(UTC+00:00)

USA 267 - Pass Details

Date: 23 May 2024
Orbit: 1100 x 1107 km, 123.0° (Epoch: 21 May)

Event Time Altitude Azimuth Distance (km) Brightness Sun altitude
Rises 00:14:22 0° 58° (ENE) 3,922 7.0 -18.4°
Reaches altitude 10° 00:16:52 10° 56° (NE) 2,963 6.3 -18.2°
Maximum altitude 00:23:20 67° 336° (NNW) 1,186 3.6 -17.9°
Drops below altitude 10° 00:29:47 10° 255° (WSW) 2,956 5.2 -17.5°
Enters shadow 00:30:21 - 254° (WSW) 3,168 5.3 -17.4°
